Wind_Speed
23 23 23 23 23 23 22 21 20 19 19 20 20 21 21 23 24 26 27 28 29 29 28 28 27 26 26 25 25 23 22 21 21 20 18 17 16 16 15 16 15 15 14
23 24 23 23 22 22 21 19 19 18 18 18 18 18 19 20 22 23 24 26 27 29 29 30 30 29 29 29 28 27 26 25 25 24 23 21 20 19 17 17 18 17 17
24 23 22 22 21 20 19 17 17 16 15 16 17 17 18 18 20 21 22 23 25 27 28 29 30 30 31 31 30 30 29 28 28 28 27 25 23 22 21 20 19 19 19
24 23 22 21 20 19 18 17 17 15 15 15 16 16 16 17 18 18 19 21 23 25 26 27 29 29 31 32 32 33 32 31 31 31 31 29 27 25 24 23 22 22 21
24 23 22 21 20 19 18 17 16 15 15 14 14 15 15 15 16 17 18 19 20 22 23 24 26 28 30 32 34 35 34 33 33 33 34 33 31 29 27 26 25 25 24
24 24 24 22 21 20 18 17 16 16 15 14 14 14 15 15 16 17 18 18 19 20 21 22 24 26 28 30 32 34 35 35 34 34 35 35 35 33 31 30 28 28 27
25 24 24 23 22 21 20 19 18 18 17 16 16 15 16 16 16 17 18 19 19 20 21 22 23 25 26 27 29 32 34 35 35 36 37 37 36 36 34 32 31 30 29
25 25 24 24 23 22 22 21 20 20 20 19 18 17 17 18 17 18 18 19 20 20 21 22 23 25 25 26 28 30 31 33 34 36 37 38 38 38 36 35 33 32 32
26 26 26 25 24 24 24 23 22 22 22 22 20 19 19 19 19 20 19 19 20 20 21 22 23 24 25 25 26 27 29 30 32 34 37 38 39 39 38 37 35 34 33
26 25 26 26 26 26 26 25 25 24 24 24 23 22 21 20 20 21 21 21 20 20 21 21 22 23 24 24 25 27 27 29 31 32 34 35 37 38 38 37 36 35 34
27 27 27 27 27 28 28 28 28 27 26 26 25 25 24 23 22 21 22 22 21 20 20 21 22 22 22 23 25 25 26 26 28 30 31 33 35 36 37 37 37 36 35
30 29 28 28 29 30 30 31 30 30 29 28 28 27 26 25 24 23 22 23 23 22 21 21 21 22 22 23 24 24 24 25 26 28 29 31 33 34 35 35 36 36 35
34 33 32 32 32 32 33 33 33 33 32 31 30 29 28 27 26 25 24 23 23 23 22 22 22 21 22 23 24 25 24 24 23 25 27 29 30 32 33 33 35 35 35
41 40 38 38 37 36 37 37 37 37 36 34 33 32 31 30 29 28 26 25 24 23 23 22 22 22 22 22 24 25 25 24 23 23 24 26 27 29 30 31 32 33 34
48 47 46 45 44 43 42 42 41 41 40 38 37 35 34 32 31 30 29 27 25 24 24 23 23 23 23 23 24 25 25 24 24 24 24 24 25 26 27 28 29 30 31
54 53 53 52 51 50 48 47 46 45 44 43 41 39 37 35 34 32 31 29 27 25 24 24 24 24 24 23 24 25 25 25 24 23 23 24 25 25 26 27 28 28 28
59 58 57 57 56 55 53 52 50 49 47 46 44 42 40 38 36 35 33 31 29 27 25 25 24 23 23 23 23 24 24 24 25 24 24 25 24 25 26 26 26 27 27
64 63 62 60 59 58 57 56 54 53 51 49 47 46 43 41 38 37 35 33 31 28 26 25 24 23 22 22 23 23 23 24 24 25 25 25 25 25 26 26 25 26 27
68 67 66 65 63 62 60 59 57 55 53 52 50 48 45 43 40 38 36 34 32 30 27 26 24 23 22 22 22 22 22 23 24 24 24 25 25 25 25 25 24 25 25
68 68 69 68 67 66 64 62 60 58 56 54 53 51 48 46 43 40 38 36 34 31 28 26 25 23 22 21 21 21 22 22 23 23 24 24 24 24 23 23 23 23 24
57 60 63 65 67 67 67 66 64 61 59 57 54 53 51 48 46 42 40 37 35 32 29 27 25 23 22 21 21 21 21 21 21 22 23 23 24 23 22 22 22 22 22
40 44 48 53 58 62 65 66 65 64 62 59 57 54 52 50 48 45 41 39 36 33 30 28 26 24 22 21 20 20 20 20 20 21 22 22 23 23 22 22 21 21 21
29 30 33 37 42 48 55 61 64 64 63 62 59 56 53 50 47 45 43 40 38 34 31 29 27 24 23 21 21 21 21 20 20 20 21 21 22 22 22 21 21 20 20
30 29 28 28 30 34 39 45 52 57 60 62 61 59 56 53 50 47 45 42 39 36 32 30 28 26 24 22 21 21 21 20 20 20 20 21 21 21 21 21 21 20 19
32 31 29 29 28 28 31 34 38 43 49 53 57 59 58 55 53 50 46 42 39 36 33 31 29 27 24 23 22 21 21 21 21 21 21 21 21 21 21 20 20 20 19
34 33 31 30 28 28 28 30 32 35 39 44 49 53 55 55 54 51 48 44 40 37 34 31 30 27 24 23 22 22 21 21 21 21 21 21 20 20 20 20 19 19 18
Wind_Direction
284 284 283 281 281 281 281 282 280 280 281 280 279 278 277 274 270 269 266 264 262 258 253 246 245 244 245 245 244 242 242 241 241 242 242 243 243 243 242 241 242 243 243
280 281 280 279 279 279 278 277 275 276 277 278 279 279 279 278 274 272 271 268 266 263 258 253 248 246 246 244 243 242 241 240 240 241 242 242 241 242 243 243 242 243 243
281 280 278 278 278 278 277 275 273 272 272 277 281 282 283 283 281 277 276 271 268 266 263 258 254 251 249 245 244 243 242 242 241 240 240 240 240 240 243 244 243 243 244
281 279 278 277 276 276 275 274 273 273 273 276 281 287 291 292 287 285 282 277 272 269 266 261 257 255 252 248 246 244 243 242 241 240 240 239 239 239 241 242 243 243 244
280 279 277 275 274 274 273 271 271 272 273 276 282 287 293 295 294 292 288 283 278 274 269 265 261 257 254 251 248 244 241 241 242 240 239 239 239 239 239 240 242 243 244
278 277 275 271 270 271 270 267 267 268 270 275 281 287 292 296 296 296 293 289 283 278 273 269 265 262 255 251 245 241 242 243 243 241 239 237 238 239 239 240 242 243 244
276 274 272 268 267 266 265 264 265 267 270 273 278 284 289 294 297 298 297 293 290 285 279 273 266 262 257 252 247 244 243 243 243 242 239 237 238 238 239 239 242 242 243
278 274 269 266 264 264 262 262 265 268 270 271 275 281 286 291 296 298 298 296 294 288 281 275 268 263 259 254 249 245 246 244 242 240 238 238 237 237 238 239 241 242 243
278 275 269 265 263 261 261 261 264 268 270 270 272 276 281 286 291 295 297 297 296 292 284 277 270 264 261 257 251 249 247 243 241 240 239 239 239 239 239 239 240 242 242
275 272 266 263 262 260 260 261 263 266 268 271 273 276 279 282 285 290 295 297 296 294 288 280 274 269 264 259 256 253 249 245 243 240 237 238 239 238 239 239 239 240 241
270 269 265 262 261 260 261 261 261 263 266 269 272 276 279 281 283 286 290 294 296 295 292 284 277 271 266 260 258 254 251 245 242 240 238 239 238 238 238 238 237 239 241
271 268 265 263 261 261 261 261 262 263 264 267 270 272 276 280 282 284 285 290 294 295 293 288 280 272 265 260 257 254 251 247 244 243 241 239 238 237 237 238 238 239 242
272 268 266 264 261 260 260 261 262 263 264 265 267 269 272 275 279 281 283 286 290 292 292 288 284 277 269 261 256 253 253 251 248 246 243 240 238 237 237 237 239 240 242
271 269 267 265 264 262 261 260 260 261 263 264 265 267 269 271 275 278 280 281 284 287 289 287 284 280 273 264 257 252 252 252 252 249 247 244 239 238 238 239 240 240 241
271 268 266 265 264 263 261 260 259 260 261 263 264 265 266 269 271 274 276 278 279 282 285 285 283 279 274 266 259 254 252 252 251 250 246 245 240 238 238 239 239 240 241
270 268 266 264 263 262 261 259 258 259 259 261 262 262 264 265 268 270 273 274 276 278 281 283 282 279 276 268 261 254 251 250 249 248 246 244 243 240 240 241 241 242 241
270 267 265 264 262 261 260 258 257 257 258 258 259 259 261 263 265 267 269 271 273 274 276 280 281 278 274 269 262 257 253 248 247 247 246 243 244 244 242 242 242 242 241
268 266 265 263 262 260 259 257 256 255 256 256 256 257 258 259 261 263 265 268 270 272 274 276 278 277 274 269 261 256 252 248 246 245 244 243 244 243 242 243 242 241 241
265 264 263 262 261 259 258 256 255 254 254 253 253 254 255 256 257 259 261 264 266 268 271 273 275 275 273 268 262 255 250 248 245 243 243 242 243 242 243 242 242 241 241
265 263 261 260 259 258 256 255 253 252 251 250 250 251 252 253 254 255 257 259 261 263 266 269 270 272 271 267 260 256 249 246 245 243 242 242 242 243 242 240 241 242 242
265 262 260 258 257 256 255 254 252 251 249 248 248 248 248 249 250 251 253 254 256 259 262 264 266 268 268 267 260 254 249 245 244 243 243 241 241 241 240 241 241 243 241
271 266 263 260 257 255 253 252 251 250 248 246 245 245 245 246 246 246 248 250 252 255 257 259 262 263 263 262 258 252 250 246 245 243 241 241 239 239 239 240 241 242 240
278 276 272 266 262 258 255 252 250 248 246 244 242 242 242 241 241 242 243 246 248 250 252 256 258 259 259 259 256 250 249 245 244 241 240 240 239 239 239 239 239 240 237
276 276 277 275 270 264 258 253 250 247 244 241 240 238 238 238 238 239 240 242 244 246 249 251 254 255 255 256 252 249 248 246 241 239 239 239 238 239 238 238 236 237 235
273 272 272 273 272 270 264 257 252 247 242 239 237 235 234 234 235 236 236 238 240 242 245 247 250 251 251 249 245 244 244 241 238 238 238 238 238 238 236 234 233 233 233
270 269 269 269 269 269 267 261 253 246 240 236 233 231 230 230 230 231 232 235 236 238 240 244 245 247 247 244 241 239 240 239 236 236 237 236 237 237 232 228 227 225 226
Height
5869 5867 5866 5865 5864 5863 5862 5862 5861 5860 5860 5858 5857 5857 5856 5855 5855 5855 5855 5855 5855 5855 5855 5856 5858 5860 5862 5864 5866 5867 5869 5870 5872 5874 5875 5877 5878 5880 5881 5883 5884 5886 5887
5863 5862 5861 5860 5859 5858 5857 5857 5856 5855 5855 5854 5853 5852 5851 5850 5849 5849 5848 5848 5848 5848 5849 5850 5850 5853 5855 5857 5859 5861 5863 5865 5867 5869 5871 5872 5874 5876 5878 5879 5881 5882 5884
5857 5856 5855 5854 5853 5852 5852 5852 5851 5850 5850 5849 5848 5847 5846 5844 5843 5843 5842 5842 5841 5841 5842 5842 5843 5845 5847 5849 5852 5854 5856 5858 5860 5863 5865 5867 5869 5871 5873 5875 5877 5879 5880
5850 5849 5848 5848 5847 5846 5846 5846 5845 5845 5845 5844 5844 5842 5841 5839 5838 5837 5836 5836 5835 5835 5835 5835 5836 5837 5839 5841 5844 5846 5848 5851 5853 5855 5858 5861 5863 5865 5867 5870 5872 5874 5876
5843 5843 5842 5842 5842 5841 5841 5841 5841 5841 5840 5840 5839 5838 5836 5835 5833 5832 5830 5830 5829 5829 5828 5828 5829 5830 5832 5833 5835 5838 5840 5842 5845 5847 5850 5854 5856 5859 5861 5864 5866 5869 5871
5836 5836 5836 5836 5836 5836 5836 5836 5836 5836 5836 5835 5835 5834 5832 5830 5829 5827 5825 5824 5823 5823 5822 5822 5822 5823 5824 5825 5826 5829 5832 5834 5837 5839 5842 5846 5849 5852 5855 5857 5860 5863 5865
5830 5829 5830 5830 5830 5830 5831 5831 5831 5831 5831 5831 5831 5830 5828 5826 5824 5822 5821 5819 5818 5817 5816 5816 5816 5816 5817 5818 5819 5821 5823 5826 5828 5831 5834 5837 5841 5844 5847 5850 5853 5856 5859
5823 5823 5823 5824 5824 5825 5825 5825 5826 5826 5826 5826 5826 5825 5824 5822 5820 5818 5816 5814 5813 5811 5810 5809 5810 5810 5811 5811 5812 5814 5816 5818 5820 5823 5826 5829 5833 5836 5839 5843 5846 5849 5852
5817 5817 5816 5817 5817 5818 5819 5819 5819 5820 5820 5820 5820 5820 5819 5818 5816 5813 5811 5809 5807 5806 5804 5804 5804 5804 5804 5805 5806 5807 5808 5810 5812 5814 5817 5821 5824 5828 5831 5835 5838 5841 5844
5810 5809 5809 5809 5810 5811 5811 5812 5812 5813 5813 5813 5813 5813 5813 5812 5811 5809 5806 5804 5802 5800 5799 5798 5798 5798 5798 5799 5799 5799 5801 5803 5805 5807 5809 5812 5816 5819 5823 5827 5830 5834 5837
5801 5801 5801 5801 5802 5802 5803 5803 5804 5805 5806 5806 5806 5806 5806 5806 5805 5804 5802 5799 5797 5795 5793 5792 5792 5792 5792 5793 5793 5794 5794 5796 5798 5800 5802 5805 5808 5811 5815 5819 5822 5826 5829
5792 5792 5792 5793 5793 5793 5794 5794 5795 5796 5797 5798 5798 5799 5799 5798 5798 5798 5797 5794 5792 5789 5788 5787 5786 5786 5786 5786 5787 5787 5788 5789 5791 5793 5795 5798 5800 5803 5807 5811 5815 5818 5821
5783 5782 5782 5783 5783 5783 5784 5785 5785 5786 5787 5789 5790 5790 5791 5791 5791 5791 5790 5789 5787 5784 5783 5781 5780 5780 5780 5780 5781 5782 5782 5783 5785 5787 5789 5791 5793 5796 5800 5803 5807 5810 5813
5771 5770 5771 5771 5772 5772 5773 5774 5775 5776 5777 5779 5780 5781 5782 5782 5783 5783 5783 5783 5781 5779 5777 5776 5774 5774 5773 5773 5774 5775 5777 5778 5779 5781 5783 5785 5787 5790 5793 5796 5799 5803 5806
5757 5757 5757 5758 5759 5760 5761 5762 5764 5765 5767 5768 5770 5771 5773 5774 5774 5775 5775 5775 5775 5774 5772 5770 5769 5768 5767 5767 5767 5769 5770 5772 5773 5775 5777 5779 5781 5784 5786 5789 5792 5795 5798
5740 5741 5742 5743 5744 5745 5747 5749 5751 5753 5755 5757 5758 5761 5763 5764 5765 5766 5767 5767 5768 5768 5766 5764 5763 5762 5761 5761 5761 5762 5764 5766 5768 5769 5771 5773 5775 5777 5780 5783 5785 5788 5791
5720 5722 5723 5725 5727 5729 5731 5734 5737 5739 5742 5744 5746 5749 5752 5754 5756 5757 5758 5759 5760 5760 5760 5758 5757 5756 5755 5755 5755 5756 5758 5759 5761 5763 5765 5767 5769 5771 5774 5777 5779 5782 5784
5698 5700 5702 5705 5707 5710 5713 5717 5720 5724 5727 5730 5733 5737 5740 5743 5746 5747 5749 5751 5751 5752 5752 5752 5750 5750 5749 5749 5749 5750 5752 5753 5755 5757 5759 5761 5763 5765 5768 5770 5772 5775 5777
5675 5677 5679 5683 5686 5690 5694 5698 5702 5707 5711 5716 5720 5724 5727 5731 5734 5737 5740 5742 5743 5744 5745 5745 5744 5743 5743 5743 5743 5744 5745 5747 5749 5751 5753 5755 5757 5760 5762 5764 5766 5769 5771
5649 5652 5655 5659 5663 5667 5672 5678 5683 5689 5694 5699 5704 5709 5714 5718 5722 5726 5729 5732 5734 5735 5737 5737 5737 5737 5737 5737 5737 5738 5740 5741 5743 5745 5747 5749 5751 5754 5756 5758 5760 5763 5765
5624 5627 5630 5634 5639 5644 5650 5655 5662 5669 5676 5682 5688 5694 5700 5705 5710 5714 5718 5722 5725 5727 5728 5730 5730 5731 5731 5731 5732 5732 5734 5735 5737 5739 5741 5744 5746 5748 5750 5752 5755 5757 5759
5606 5607 5609 5612 5616 5620 5626 5632 5640 5648 5656 5663 5671 5678 5684 5691 5696 5702 5707 5711 5715 5718 5720 5722 5723 5724 5724 5725 5726 5726 5728 5730 5732 5734 5736 5738 5740 5742 5744 5746 5749 5751 5753
5594 5594 5594 5595 5597 5600 5604 5610 5617 5625 5634 5643 5652 5661 5669 5676 5682 5689 5695 5700 5704 5708 5711 5714 5716 5717 5718 5719 5720 5721 5722 5724 5726 5728 5730 5732 5734 5736 5739 5741 5743 5745 5747
5585 5584 5583 5583 5584 5585 5587 5591 5596 5604 5613 5622 5632 5642 5652 5660 5668 5676 5683 5689 5694 5698 5702 5705 5708 5710 5711 5712 5714 5715 5716 5718 5720 5722 5724 5726 5729 5731 5733 5735 5738 5740 5742
5574 5574 5574 5574 5574 5574 5575 5577 5581 5586 5594 5602 5612 5623 5634 5644 5654 5662 5670 5677 5683 5688 5692 5696 5700 5702 5704 5705 5707 5708 5710 5712 5714 5717 5719 5721 5723 5726 5728 5730 5732 5735 5737
5563 5563 5564 5564 5564 5565 5565 5566 5569 5573 5579 5587 5596 5606 5617 5628 5638 5648 5657 5665 5672 5678 5683 5687 5691 5694 5696 5698 5700 5702 5704 5707 5709 5711 5714 5716 5718 5720 5722 5725 5728 5730 5733